This is the latest recevied weather packets stored in our database for station/object KM4RT-13. If no packets are shown the sender has not sent any weather packets the latest 10 day(s).
| Time | Temp. | Humidity | Pressure | Rain* | Wind** | Luminosity | Snow |
|---|---|---|---|---|---|---|---|
| 1777839965 | 22.22° C | 35% | 1015.3 hPa | 0 mm | - | 578 W/m² | - |
| 1777839663 | 21.67° C | 36% | 1015.4 hPa | 0 mm | - | 589 W/m² | - |
| 1777839361 | 22.22° C | 34% | 1015.6 hPa | 0 mm | - | 604 W/m² | - |
| 1777839057 | 21.67° C | 37% | 1015.9 hPa | 0 mm | - | 616 W/m² | - |
| 1777838748 | 21.67° C | 34% | 1015.6 hPa | 0 mm | - | 627 W/m² | - |
| 1777838445 | 21.67° C | 38% | 1015.9 hPa | 0 mm | - | 634 W/m² | - |
| 1777838142 | 21.67° C | 40% | 1015.8 hPa | 0 mm | - | 590 W/m² | - |
| 1777837839 | 21.67° C | 39% | 1016 hPa | 0 mm | - | 75 W/m² | - |
| 1777837536 | 21.11° C | 38% | 1016.2 hPa | 0 mm | - | 70 W/m² | - |
| 1777837236 | 21.11° C | 36% | 1016.1 hPa | 0 mm | - | 72 W/m² | - |
| 1777836933 | 21.67° C | 36% | 1016.1 hPa | 0 mm | - | 483 W/m² | - |
| 1777836628 | 21.67° C | 37% | 1016.1 hPa | 0 mm | - | 696 W/m² | - |
| 1777836324 | 21.67° C | 36% | 1016.3 hPa | 0 mm | - | 704 W/m² | - |
| 1777836020 | 21.67° C | 38% | 1016.2 hPa | 0 mm | - | 711 W/m² | - |
| 1777835717 | 21.67° C | 36% | 1016.6 hPa | 0 mm | - | 717 W/m² | - |
| 1777835414 | 21.67° C | 39% | 1016.5 hPa | 0 mm | - | 728 W/m² | - |
| 1777835110 | 21.11° C | 39% | 1016.5 hPa | 0 mm | - | 735 W/m² | - |
| 1777834808 | 20.56° C | 40% | 1016.7 hPa | 0 mm | - | 737 W/m² | - |
| 1777834503 | 20.56° C | 40% | 1016.8 hPa | 0 mm | - | 743 W/m² | - |
| 1777834198 | 20.56° C | 38% | 1016.9 hPa | 0 mm | - | 752 W/m² | - |
| 1777833895 | 20.56° C | 37% | 1017 hPa | 0 mm | - | 756 W/m² | - |
| 1777833591 | 20.56° C | 42% | 1017 hPa | 0 mm | - | 760 W/m² | - |
| 1777833288 | 20.56° C | 42% | 1017 hPa | 0 mm | - | 759 W/m² | - |
| 1777832985 | 20.56° C | 43% | 1017.2 hPa | 0 mm | - | 699 W/m² | - |
| 1777832684 | 20° C | 40% | 1017.3 hPa | 0 mm | - | 772 W/m² | - |
* Rain latest hour (hover to see other rain measurements)
** Current wind speed in m/s (hover to see current wind gust speed)